AirNav   Everest Fuels
 
 1217 users online  

0AL1 Resort Airport
Foley, Alabama, USA

GOING TO FOLEY?


FAA INFORMATION EFFECTIVE 21 MAY 2020

Location

FAA Identifier: 0AL1
Lat/Long: 30-26-38.0000N 087-39-25.0000W
30-26.633333N 087-39.416667W
30.4438889,-87.6569444
(estimated)
Elevation: 97 ft. / 30 m (estimated)
Variation: 01E (1990)
From city: 4 miles NE of FOLEY, AL
Time zone: UTC -5 (UTC -6 during Standard Time)
Zip code: 36535

Airport Operations

Airport use: Private use. Permission required prior to landing
Activation date: 03/1993
Control tower: no
ARTCC: JACKSONVILLE CENTER
FSS: ANNISTON FLIGHT SERVICE STATION
Attendance: UNATNDD
Segmented circle: no

Airport Communications

WX AWOS-3PT at JKA (9 nm S): 134.525 (251-968-7581)
WX AWOS-3PT at CQF (11 nm W): 118.425 (251-928-3242)

Nearby radio navigation aids

VOR radial/distance  VOR name  Freq  Var
NUNr263/(16.7)SAUFLEY VOR108.8001E
BFMr112/23.0BROOKLEY VORTAC112.8004E

 
NDB name  Hdg/Dist  Freq  Var  ID
PICKENS273/24.832602WPKZ .--. -.- --..
WISLE121/38.424801WMOB -- --- -...

Airport Services

Runway Information

Runway 17/35

Dimensions: 2640 x 70 ft. / 805 x 21 m
Surface: turf
RUNWAY 17  RUNWAY 35
Traffic pattern: leftleft
Obstructions: none30 ft. pline, 500 ft. from runway

Airport Ownership and Management from official FAA records

Ownership: Privately-owned
Owner: RICK TEAGUE
PO BOX 69
SUMMERDALE, AL 36580-0069
Phone (251) 752-0658
Manager: RICK TEAGUE
PO BOX 69
SUMMERDALE, AL 36580-0069
Phone (251) 752-0658

Airport Operational Statistics

Aircraft based on the field: 4
Single engine airplanes: 4
    

Additional Remarks

FOR CD CTC PENSACOLA APCH AT 850-266-6884 OR 850-266-6885.

Instrument Procedures

There are no published instrument procedures at 0AL1.

Some nearby airports with instrument procedures:

5R4 - Foley Municipal Airport (2 nm SW)
KJKA - Jack Edwards National Airport (9 nm S)
KCQF - H L Sonny Callahan Airport (11 nm W)
KNPA - Pensacola Naval Air Station/Forrest Sherman Field (18 nm E)
KBFM - Mobile Downtown Airport (24 nm NW)
 
Loc | Ops | Rwys | IFR | FBO | Links
Com | Nav | Svcs | Stats | Notes

Continental Services
AirBoss

 
Area around 0AL1 (Resort Airport)
 
Road maps at: MapQuest Bing Google
 
Aerial photo
No photo
 
Sectional chart

 
Airport distance calculator
Flying to Resort Airport? Find the distance to fly.

From to 0AL1

Sunrise and sunset
Times for 01-Jun-2020
 Local
(UTC-5)
 Zulu
(UTC)
Morning civil twilight05:2210:22
Sunrise05:5010:50
Sunset19:4700:47
Evening civil twilight20:1501:15

Current date and time
Zulu (UTC)  01-Jun-2020 22:05:20
Local (UTC-5)  01-Jun-2020 17:05:20
 
METAR
KJKA 
9nm S 
012155Z AUTO 12008KT 10SM CLR 29/18 A3006 RMK AO2 T02940183
KCQF 
11nm W 
012155Z AUTO 16009KT 10SM CLR 30/19 A3006 RMK AO2
KNPA 
18nm E 
012156Z 15006KT 10SM FEW050 SCT150 BKN250 32/17 A3006 RMK AO2 SLP179 T03170167
TAF
KNPA 
18nm E 
0115/0215 05008KT 9999 SCT160 BKN250 QNH3006INS FM011800 12008KT 9999 FEW040 SCT160 BKN250 QNH3004INS FM020600 11007KT 9999 VCSH SCT020 BKN045 BKN250 QNH3006INS TEMPO 0208/0213 6000 RA BR BKN020 T31/0120Z T24/0212Z FN20033
NOTAMs
Click for the latest NOTAMs
NOTAMs are issued by the DoD/FAA and will open in a separate window not controlled by AirNav.

 

 
 

Would you like to see your business listed on this page?

 If your business provides an interesting product or service to pilots, flight crews, aircraft, or users of the Resort Airport, you should consider listing it here.  To start the listing process, click on the button below
 
Add a business
 

Other Pages about Resort Airport

Update a link
 
Copyright © AirNav, LLC. All rights reserved. Privacy Policy  Contact